This is the latest recevied weather packets stored in our database for station/object WA0GMH-1. If no packets are shown the sender has not sent any weather packets the latest 10 day(s).
| Time | Temp. | Humidity | Pressure | Rain* | Wind** | Luminosity | Snow |
|---|---|---|---|---|---|---|---|
| 1778167701 | 12.22° C | 100% | 1010.8 hPa | 0 mm | - | - | - |
| 1778167299 | 11.67° C | 100% | 1011 hPa | 0 mm | - | - | - |
| 1778166896 | 11.67° C | 1% | 1010.9 hPa | 0 mm | - | - | - |
| 1778166494 | 11.11° C | 2% | 1010.8 hPa | 0 mm | - | - | - |
| 1778166092 | 11.11° C | 3% | 1010.8 hPa | 0 mm | - | - | - |
| 1778165690 | 10.56° C | 4% | 1010.8 hPa | 0 mm | - | - | - |
| 1778165287 | 10.56° C | 6% | 1010.7 hPa | 0 mm | - | - | - |
| 1778164885 | 10° C | 8% | 1010.7 hPa | 0 mm | - | - | - |
| 1778164483 | 10° C | 8% | 1010.8 hPa | 0 mm | - | - | - |
| 1778164081 | 9.44° C | 10% | 1010.7 hPa | 0 mm | - | - | - |
| 1778163678 | 8.89° C | 10% | 1010.7 hPa | 0 mm | - | - | - |
| 1778163276 | 8.89° C | 12% | 1010.6 hPa | 0 mm | - | - | - |
| 1778162874 | 8.33° C | 12% | 1010.9 hPa | 0 mm | - | - | - |
| 1778162472 | 7.78° C | 12% | 1010.6 hPa | 0 mm | - | - | - |
| 1778162069 | 7.78° C | 13% | 1010.6 hPa | 0 mm | - | - | - |
| 1778161667 | 7.22° C | 15% | 1010.5 hPa | 0 mm | - | - | - |
| 1778161265 | 6.67° C | 15% | 1010.4 hPa | 0 mm | - | - | - |
| 1778160863 | 6.67° C | 16% | 1010.4 hPa | 0 mm | - | - | - |
| 1778160460 | 6.11° C | 17% | 1010.6 hPa | 0 mm | - | - | - |
| 1778160058 | 5.56° C | 18% | 1010.4 hPa | 0 mm | - | - | - |
| 1778159656 | 5° C | 17% | 1010.2 hPa | 0 mm | - | - | - |
| 1778159254 | 4.44° C | 16% | 1010.4 hPa | 0 mm | - | - | - |
| 1778158851 | 4.44° C | 15% | 1010.1 hPa | 0 mm | - | - | - |
| 1778158450 | 4.44° C | 16% | 1010.1 hPa | 0 mm | - | - | - |
| 1778158047 | 3.89° C | 16% | 1010 hPa | 0 mm | - | - | - |
* Rain since midnight (hover to see other rain measurements)
** Current wind speed in m/s (hover to see current wind gust speed)